STARLINK-32807, 62845

Orbit data source: Space-Track

STARLINK-32807, 62845 is a payload satellite owned by SpaceX/Seattle (US) in LEO that was launched on Mon, 27 Jan 2025 UTC via an FALCON 9 launch vehicle from the Air Force Eastern Test Range (AFETR). Payload-class satellites include a variety of spacecraft equipped with specific instruments for various scientific and technological missions. These include communications satellites like Starlink; space stations such as the ISS; scientific satellites like the Hubble; Earth observation satellites from companies like Planet Labs, Umbra, and HawkEye 360; GPS; miniature CubeSats for education and research; and military/defense satellites.

Loading next visibility...
Identifier
62845, 2025-019S
Orbit
LEO
Last TLE update
6 hours ago
Origin
Manufacturer
SpaceX/Seattle
Mission
Operational Commercial Communications
Bus & Motor
STARLINK V2M, Unknown motor
Mass
730 kg wet, ~700 kg dry
Launch date (UTC)
2025-01-27 (5 months ago)
Launch vehicle
FALCON 9
Launch site
Air Force Eastern Test Range (AFETR)
Object type
Payload
Rocket body
Debris
Shape & HBR
Box + 2 Pan, 29 m
Radar Cross Section
33.884 m², Large (>1 m²)

Expand to show TLE details & history

TLE from 6 hours ago
0 STARLINK-32807
1 62845U 25019S   25182.92191223  .00013200  00000-0  48822-3 0  9992
2 62845  43.0019  57.8868 0001561 275.2075  84.8598 15.27588830 23988
Epoch: 2025-07-01T22:07Z
TLE epoch observation values (Epoch: 2025-07-01T22:07:33.216Z)
Latitude
-0.00006°
Longitude
165.78791°
Altitude
482.703 km
Speed
7.626 km/s
True Right ascension
03h 51m 32s
True Declination
0° 00' 00"
Sunlit
Object was in daylight at epoch
Visualization orbit readout
Latitude
-36.55573°
Longitude
112.12265°
Altitude
492.647 km
Speed
7.62 km/s
Apparent Right ascension
01h 56m 24s
Apparent Declination
-41° 07' 38"
Sunlit
Object is in daylight
Visualization observer readout
Local Sidereal Time
15:49:42
Azimuth
102.466° ESE
Elevation
-68.528°
Doppler factor
1
Orbital elements
Apogee altitude
486.039 km
Perigee altitude
483.896 km
Semi-major axis
6,863.105 km
Eccentricity
0.00016
Inclination
43.0019°
RAAN
57.8868°
Arg. of periapsis
275.2075°
True anomaly
Unknown
Mean anomaly
84.8598°
Eccentric anomaly
Unknown
Mean motion
3.81735 °/min
Orbital period
94.31 mins
BSTAR
0.00048822
Loading maneuver chart data...
Loading SW <> Apogee altitude chart data...
Loading historical data...
Loading historical data...
Loading historical data...
Loading historical data...
Loading historical data...
Loading historical data...
Loading historical data...

STARLINK-32807 Visibility forecast

Observer location: undefined°, undefined°

Span
Click to sort rows by Start time (UTC) header in descending order
Start Az.
Max El. time (UTC)
Max El. Az.
Max El.
End time (UTC)
End Az.
6 mins2025-07-02 18:43:21.105Z211.563° SW2025-07-02 18:46:21.105Z151.014° SSE28.348°2025-07-02 18:49:21.105Z87.73° E
5 mins2025-07-02 20:23:21.105Z266.055° W2025-07-02 20:25:21.105Z9.876° NNE43.337°2025-07-02 20:28:21.105Z69.822° E
5 mins2025-07-02 22:02:21.105Z295.442° NW2025-07-02 22:04:21.105Z1.162° NNE38.379°2025-07-02 22:07:21.105Z78.464° E
5 mins2025-07-02 23:41:21.105Z284.084° WNW2025-07-02 23:43:21.105Z227.158° WSW44.124°2025-07-02 23:46:21.105Z116.42° SE
|